Big Bear City, CA

9:58 AM PST on December 06, 2019 (GMT -0800)
Big Bear City

Weather History for KL35 - June, 2019

Change the Weather History Date:

Sunday, June 9, 2019

  Actual Average (WUND) Record (WUND)
Temperature  
Mean Temperature 53 °F -  
Max Temperature 69 °F - - (-1)
Min Temperature 37 °F - - (-1)
Degree Days  
Heating Degree Days 12    
Growing Degree Days 3 (Base 50)    
Moisture  
Dew Point 26 °F    
Average Humidity 36    
Maximum Humidity 70    
Minimum Humidity 16    
Precipitation  
Precipitation 0.00 in - - ()
Sea Level Pressure  
Sea Level Pressure 30.32 in    
Wind  
Wind Speed 4 mph (ENE)    
Max Wind Speed 17 mph    
Max Gust Speed 29 mph    
Visibility 10 miles    
Events      
Averages and records for this station are not official NWS values.
T = Trace of Precipitation, MM = Missing Value Source: NWS Daily Summary

Daily Weather History Graph

Daily Weather History Graph

Search for Another Location

Airport or City:

Astronomy

Jun. 09, 2019 Rise Set
Actual Time 5:35 AM PDT 7:58 PM PDT
Civil Twilight 5:05 AM PDT 8:27 PM PDT
Nautical Twilight 4:30 AM PDT 9:03 PM PDT
Astronomical Twilight 3:50 AM PDT 9:42 PM PDT
Moon 12:09 PM PDT (6/9) 12:49 AM PDT (6/9)
Length of Visible Light 15h 21m
Length of Day
14h 23m
Waxing Crescent, 45% of the Moon is Illuminated
Jun 9
Waxing Crescent
Jun 9
First Quarter
Jun 17
Full
Jun 25
Last Quarter
Jul 2
New

Hourly Weather History & Observations

Time (PDT) Temp. Dew Point Humidity Pressure Visibility Wind Dir Wind Speed Gust Speed Precip Events Conditions
12:15 AM 44.6 °F 30.2 °F 57% 30.27 in 10.0 mi Calm Calm - N/A   Clear
12:35 AM 44.6 °F 30.2 °F 57% 30.27 in 10.0 mi Calm Calm - N/A   Clear
12:55 AM 42.8 °F 28.4 °F 57% 30.27 in 10.0 mi Calm Calm - N/A   Clear
1:15 AM 42.8 °F 28.4 °F 57% 30.27 in 10.0 mi Calm Calm - N/A   Clear
1:35 AM 42.8 °F 28.4 °F 57% 30.27 in 10.0 mi Calm Calm - N/A   Clear
1:55 AM 41.0 °F 28.4 °F 61% 30.27 in 10.0 mi Calm Calm - N/A   Clear
2:15 AM 41.0 °F 28.4 °F 61% 30.27 in 10.0 mi Calm Calm - N/A   Clear
2:35 AM 41.0 °F 28.4 °F 61% 30.27 in 10.0 mi Calm Calm - N/A   Clear
2:55 AM 41.0 °F 28.4 °F 61% 30.27 in 10.0 mi Calm Calm - N/A   Clear
3:15 AM 41.0 °F 28.4 °F 61% 30.27 in 10.0 mi Calm Calm - N/A   Clear
3:35 AM 41.0 °F 28.4 °F 61% 30.27 in 10.0 mi Calm Calm - N/A   Clear
3:55 AM 39.2 °F 26.6 °F 61% 30.27 in 10.0 mi Calm Calm - N/A   Clear
4:15 AM 39.2 °F 26.6 °F 61% 30.28 in 10.0 mi Calm Calm - N/A   Clear
4:35 AM 39.2 °F 26.6 °F 61% 30.28 in 10.0 mi Calm Calm - N/A   Clear
4:55 AM 39.2 °F 26.6 °F 61% 30.28 in 10.0 mi Calm Calm - N/A   Clear
5:15 AM 39.2 °F 26.6 °F 61% 30.29 in 10.0 mi Calm Calm - N/A   Clear
5:35 AM 37.4 °F 28.4 °F 70% 30.30 in 10.0 mi Calm Calm - N/A   Clear
5:55 AM 37.4 °F 26.6 °F 65% 30.30 in 10.0 mi Calm Calm - N/A   Clear
6:15 AM 39.2 °F 28.4 °F 65% 30.31 in 10.0 mi Calm Calm - N/A   Clear
6:35 AM 41.0 °F 28.4 °F 61% 30.31 in 10.0 mi Calm Calm - N/A   Clear
6:55 AM 44.6 °F 30.2 °F 57% 30.31 in 10.0 mi Calm Calm - N/A   Clear
7:15 AM 46.4 °F 30.2 °F 53% 30.31 in 10.0 mi Calm Calm - N/A   Clear
7:35 AM 51.8 °F 32.0 °F 47% 30.31 in 10.0 mi Calm Calm - N/A   Clear
7:55 AM 59.0 °F 28.4 °F 31% 30.32 in 10.0 mi NE 10.4 mph - N/A   Clear
8:15 AM 60.8 °F 28.4 °F 29% 30.32 in 10.0 mi East 15.0 mph 25.3 mph N/A   Clear
8:35 AM 60.8 °F 26.6 °F 27% 30.33 in 10.0 mi East 13.8 mph 21.9 mph N/A   Clear
8:55 AM 60.8 °F 26.6 °F 27% 30.33 in 10.0 mi East 11.5 mph 21.9 mph N/A   Clear
9:15 AM 62.6 °F 26.6 °F 26% 30.34 in 10.0 mi ENE 11.5 mph 17.3 mph N/A   Clear
9:35 AM 62.6 °F 26.6 °F 26% 30.34 in 10.0 mi ENE 13.8 mph 23.0 mph N/A   Clear
9:55 AM 64.4 °F 26.6 °F 24% 30.33 in 10.0 mi ENE 12.7 mph 19.6 mph N/A   Clear
10:15 AM 64.4 °F 26.6 °F 24% 30.33 in 10.0 mi ENE 17.3 mph 21.9 mph N/A   Clear
10:35 AM 64.4 °F 24.8 °F 22% 30.33 in 10.0 mi ENE 16.1 mph 21.9 mph N/A   Clear
11:15 AM 66.2 °F 26.6 °F 23% 30.34 in 10.0 mi NE 17.3 mph 24.2 mph N/A   Clear
11:35 AM 66.2 °F 24.8 °F 21% 30.34 in 10.0 mi ENE 17.3 mph 23.0 mph N/A   Clear
11:55 AM 66.2 °F 24.8 °F 21% 30.34 in 10.0 mi NE 15.0 mph 21.9 mph N/A   Clear
12:15 PM 68.0 °F 24.8 °F 20% 30.34 in 10.0 mi ENE 17.3 mph 23.0 mph N/A   Clear
12:35 PM 68.0 °F 24.8 °F 20% 30.34 in 10.0 mi NE 12.7 mph 28.8 mph N/A   Clear
12:55 PM 68.0 °F 24.8 °F 20% 30.33 in 10.0 mi NE 12.7 mph 25.3 mph N/A   Clear
1:15 PM 68.0 °F 23.0 °F 18% 30.33 in 10.0 mi ENE 15.0 mph 24.2 mph N/A   Clear
1:35 PM 68.0 °F 24.8 °F 20% 30.33 in 10.0 mi ENE 12.7 mph 21.9 mph N/A   Clear
1:55 PM 68.0 °F 24.8 °F 20% 30.33 in 10.0 mi ENE 15.0 mph 24.2 mph N/A   Clear
2:15 PM 69.8 °F 24.8 °F 18% 30.33 in 10.0 mi ENE 16.1 mph 24.2 mph N/A   Clear
2:35 PM 69.8 °F 24.8 °F 18% 30.33 in 10.0 mi ENE 17.3 mph 24.2 mph N/A   Clear
2:55 PM 69.8 °F 24.8 °F 18% 30.33 in 10.0 mi ENE 17.3 mph 23.0 mph N/A   Clear
3:35 PM 69.8 °F 23.0 °F 17% 30.32 in 10.0 mi ENE 12.7 mph 18.4 mph N/A   Clear
3:55 PM 69.8 °F 23.0 °F 17% 30.32 in 10.0 mi ENE 12.7 mph 19.6 mph N/A   Clear
4:15 PM 69.8 °F 23.0 °F 17% 30.32 in 10.0 mi ENE 12.7 mph 16.1 mph N/A   Clear
4:35 PM 69.8 °F 23.0 °F 17% 30.32 in 10.0 mi ENE 11.5 mph - N/A   Clear
4:55 PM 69.8 °F 23.0 °F 17% 30.31 in 10.0 mi East 11.5 mph 18.4 mph N/A   Clear
5:15 PM 69.8 °F 23.0 °F 17% 30.31 in 10.0 mi ENE 12.7 mph 21.9 mph N/A   Clear
5:35 PM 69.8 °F 23.0 °F 17% 30.31 in 10.0 mi ENE 12.7 mph - N/A   Clear
5:55 PM 69.8 °F 23.0 °F 17% 30.30 in 10.0 mi ENE 12.7 mph 19.6 mph N/A   Clear
6:15 PM 69.8 °F 23.0 °F 17% 30.30 in 10.0 mi ENE 10.4 mph - N/A   Clear
6:35 PM 69.8 °F 21.2 °F 16% 30.31 in 10.0 mi East 10.4 mph - N/A   Clear
6:55 PM 68.0 °F 21.2 °F 17% 30.31 in 10.0 mi ENE 9.2 mph - N/A   Clear
7:15 PM 68.0 °F 23.0 °F 18% 30.31 in 10.0 mi ENE 9.2 mph - N/A   Clear
7:35 PM 66.2 °F 23.0 °F 19% 30.32 in 10.0 mi ENE 8.1 mph - N/A   Clear
7:55 PM 64.4 °F 24.8 °F 22% 30.32 in 10.0 mi ENE 3.5 mph - N/A   Clear
8:15 PM 62.6 °F 26.6 °F 26% 30.33 in 10.0 mi Calm Calm - N/A   Clear
8:35 PM 59.0 °F 24.8 °F 27% 30.33 in 10.0 mi Calm Calm - N/A   Clear
8:55 PM 55.4 °F 26.6 °F 33% 30.34 in 10.0 mi Calm Calm - N/A   Clear
9:15 PM 53.6 °F 26.6 °F 35% 30.34 in 10.0 mi Calm Calm - N/A   Clear
9:35 PM 51.8 °F 26.6 °F 38% 30.35 in 10.0 mi Calm Calm - N/A   Clear
9:55 PM 50.0 °F 26.6 °F 40% 30.36 in 10.0 mi Calm Calm - N/A   Clear
10:15 PM 50.0 °F 26.6 °F 40% 30.36 in 10.0 mi Calm Calm - N/A   Clear
10:35 PM 50.0 °F 24.8 °F 37% 30.36 in 10.0 mi Calm Calm - N/A   Clear
10:55 PM 48.2 °F 24.8 °F 40% 30.36 in 10.0 mi Calm Calm - N/A   Clear
11:15 PM 46.4 °F 24.8 °F 43% 30.36 in 10.0 mi Calm Calm - N/A   Clear
11:35 PM 46.4 °F 26.6 °F 46% 30.36 in 10.0 mi Calm Calm - N/A   Clear
11:55 PM 46.4 °F 23.0 °F 40% 30.36 in 10.0 mi Calm Calm - N/A   Clear